Temperature
18 19 20 20 17 15 16 18 19 20 21 22 23 22 20 20 20 20 20 20 19 19 18 17 16 16 15 14 14 13 13 12 12 12 11 11 11 10 10 10 10 10 11 11 11 11 11 11 11
18 18 19 19 15 15 16 18 19 20 22 23 23 22 21 21 21 21 21 20 19 19 18 17 17 16 15 14 14 13 13 12 12 12 11 11 10 10 10 10 11 11 11 11 11 12 12 12 12
18 18 19 15 15 16 18 19 19 21 23 23 22 22 21 21 21 21 21 20 20 19 18 18 17 16 15 15 14 13 13 12 12 12 11 11 10 10 11 11 11 11 11 12 12 12 12 12 12
18 18 18 15 17 17 18 19 20 21 22 23 22 21 20 20 21 21 21 20 20 19 19 18 17 16 15 15 14 13 13 12 12 12 11 11 10 11 11 11 12 12 12 12 12 12 12 12 12
18 18 16 16 17 18 18 20 21 20 21 22 22 20 20 20 21 21 21 20 20 19 19 18 17 16 15 15 14 13 13 12 12 11 11 11 11 11 11 12 12 12 12 12 12 12 12 12 12
18 16 15 16 17 18 19 21 22 21 21 22 21 19 19 20 20 20 20 20 19 19 18 18 17 16 15 15 14 13 12 12 12 11 11 10 11 11 11 11 11 11 11 11 11 12 12 12 12
18 14 16 17 17 18 20 21 21 20 21 22 21 19 19 19 19 19 19 19 19 18 18 18 17 16 15 14 14 13 12 12 11 11 11 11 10 11 11 11 11 11 11 11 11 11 11 11 11
19 15 17 17 18 19 20 21 22 22 21 22 22 19 19 20 19 19 18 18 18 18 17 17 17 16 15 14 13 13 12 12 11 11 11 10 10 10 10 10 10 10 11 11 11 11 11 11 11
19 15 16 17 18 19 20 21 21 21 21 21 21 21 21 20 19 18 18 18 17 17 17 16 16 16 15 14 13 12 12 12 11 11 11 10 10 10 10 10 10 10 10 10 10 10 11 11 11
18 15 17 18 19 19 20 20 21 21 20 20 20 20 20 19 19 18 18 18 17 17 17 16 16 15 15 14 13 12 12 11 11 11 10 10 10 10 10 10 9 9 9 9 10 10 10 10 10
18 16 17 19 20 20 20 20 20 20 19 20 20 20 19 19 18 18 18 18 18 17 17 16 15 15 14 14 13 13 12 11 11 10 10 10 10 10 10 10 9 9 9 9 9 9 9 9 9
18 18 19 19 20 20 20 20 19 19 20 20 20 20 19 19 19 18 18 18 17 17 17 16 15 15 14 14 13 13 12 11 11 10 10 10 10 9 9 9 9 9 8 8 8 9 9 9 9
18 18 19 19 19 19 19 19 19 19 20 19 19 19 19 19 18 18 18 18 17 17 16 16 15 15 14 13 13 12 12 11 11 10 10 10 10 9 9 9 9 8 8 8 8 8 8 8 8
18 18 18 19 19 19 18 18 17 19 19 19 19 18 18 18 18 18 17 17 17 17 16 16 15 14 14 13 12 12 11 11 10 10 10 10 9 9 9 9 8 8 8 8 8 7 7 7 7
19 17 16 17 18 18 18 16 16 19 18 18 18 18 18 18 17 17 17 17 17 17 16 15 15 14 13 13 12 12 11 11 10 10 10 9 9 9 9 8 8 8 8 7 7 7 7 7 7
17 16 15 16 17 17 17 16 16 19 18 18 18 17 17 17 17 17 17 17 17 16 16 15 14 14 13 12 12 11 11 11 10 10 9 9 9 9 9 8 8 8 8 7 7 7 7 7 7
15 14 15 16 17 16 16 15 16 18 18 17 17 17 17 16 17 17 17 17 16 16 15 15 14 14 13 12 12 11 11 10 10 10 9 9 9 9 9 8 8 8 8 7 7 7 7 7 7
14 14 15 16 17 16 15 15 15 17 17 17 17 16 16 16 16 16 16 16 16 15 15 15 14 13 13 12 12 11 11 10 10 10 9 9 9 9 8 8 8 8 8 7 7 7 7 7 6
15 15 15 15 16 16 14 15 15 16 15 15 15 15 15 15 15 15 15 15 15 15 14 14 14 13 12 12 12 11 11 10 10 10 9 9 9 9 8 8 8 8 7 7 7 7 7 6 6
15 15 15 15 16 15 14 14 15 14 14 15 15 14 15 14 14 14 15 14 14 14 14 14 13 13 12 12 12 11 11 10 10 10 9 9 9 9 8 8 8 7 7 7 7 6 6 6 6
15 15 15 15 15 15 15 14 14 14 15 15 15 15 15 15 14 14 14 14 14 14 14 14 13 13 12 12 12 11 11 10 10 10 9 9 9 8 8 8 7 7 7 7 6 6 6 6 6
14 15 15 15 14 13 14 12 13 14 14 13 13 13 13 14 14 14 14 14 14 14 13 13 13 13 12 12 12 11 11 11 10 10 9 9 8 8 8 7 7 7 6 6 6 6 5 5 5
15 16 16 15 14 13 12 12 13 13 13 12 11 12 13 13 14 14 14 13 13 13 13 13 13 12 12 12 11 11 11 10 10 9 9 8 8 8 7 7 7 6 6 6 6 5 5 5 5
15 15 14 12 11 11 12 11 12 13 13 13 11 12 13 13 13 13 13 13 13 12 12 12 12 12 12 12 11 11 11 10 9 9 9 8 8 7 7 7 6 6 6 6 5 5 5 5 4
14 13 12 12 10 11 12 11 12 14 14 13 12 12 12 13 13 13 13 12 12 12 12 12 12 12 11 11 11 11 10 10 9 9 8 8 7 7 7 6 6 6 5 5 5 5 4 4 4
13 13 12 12 11 11 13 12 13 14 14 15 14 13 12 12 13 13 13 13 12 12 12 12 12 11 11 11 10 10 10 9 9 8 8 7 7 6 6 6 5 5 5 5 4 4 4 4 3
12 12 13 12 12 12 12 12 14 15 14 13 13 12 12 12 13 13 13 13 12 12 12 12 11 11 11 10 10 10 9 9 8 8 7 7 6 6 6 5 5 5 5 4 4 4 4 3 3
13 12 11 11 11 11 12 13 14 15 14 12 11 11 11 12 13 13 13 13 12 12 12 11 11 11 10 10 10 9 9 8 8 7 7 6 6 5 5 5 5 5 4 4 4 4 3 3 3
13 13 12 11 10 10 11 13 14 14 13 12 11 12 12 12 13 13 13 13 12 12 11 11 10 10 10 9 9 9 8 8 7 7 6 6 5 5 5 5 4 4 4 4 3 3 2 2 2
13 12 12 11 11 10 10 12 14 13 13 13 13 13 13 13 13 13 13 12 12 11 11 10 10 10 9 9 8 8 7 7 7 6 6 5 5 5 4 4 4 4 3 3 2 2 2 1 1
Wind_Speed
5 5 3 4 5 4 3 5 4 3 2 2 4 8 8 6 4 3 3 12 11 15 23 23 22 20 18 17 16 15 14 13 12 12 12 12 11 11 11 11 11 11 11 11 12 12 12 12 12
2 3 4 5 5 1 5 4 4 5 6 4 4 6 6 2 2 6 6 11 15 20 22 22 23 21 19 18 16 15 14 13 12 12 11 11 10 10 10 10 10 10 10 11 11 11 11 11 10
2 2 4 5 4 5 4 4 6 4 5 5 3 4 6 4 2 6 7 14 16 19 22 23 24 22 20 18 17 16 15 13 12 11 11 10 10 10 9 9 9 9 9 9 10 10 10 9 9
4 4 5 4 4 7 6 5 4 3 1 2 4 4 2 2 3 5 9 14 15 15 21 23 25 22 21 19 18 16 15 14 13 11 10 10 10 9 9 8 8 8 8 8 8 8 8 8 8
4 4 4 0 5 6 6 7 6 5 3 2 4 4 1 8 2 8 12 14 16 13 20 23 25 23 21 20 18 17 15 14 13 12 11 10 9 8 8 7 7 6 6 6 6 7 7 6 6
4 4 4 3 6 5 5 5 4 4 2 1 4 5 1 4 3 8 11 12 12 14 18 21 24 23 22 20 19 18 16 15 13 12 11 10 9 8 7 6 6 5 5 4 4 4 4 4 4
4 4 3 4 4 5 4 3 5 6 4 2 5 6 2 3 5 8 9 10 10 15 16 17 21 22 22 21 19 18 17 15 14 13 11 10 9 8 7 7 6 5 4 3 2 2 2 2 2
5 4 0 2 3 4 4 1 3 6 4 2 6 9 6 7 6 7 8 8 9 10 11 14 17 19 19 20 20 19 17 16 15 13 12 11 10 9 8 8 7 6 5 3 2 2 1 1 2
4 4 1 3 1 3 4 3 5 2 4 3 3 4 5 7 7 8 6 5 8 9 9 11 13 16 17 18 18 19 18 17 16 14 13 12 10 9 8 9 9 8 7 5 5 4 4 4 4
4 3 5 4 3 3 1 1 2 3 3 2 3 3 4 7 8 9 8 10 10 12 11 10 11 14 15 16 16 16 16 16 15 14 14 13 11 10 9 10 11 10 9 8 7 7 7 6 6
5 6 5 4 3 4 2 1 1 2 3 5 5 5 6 6 7 9 9 10 11 12 12 12 12 15 15 12 13 13 13 13 14 14 14 14 12 11 10 10 11 12 10 9 8 8 8 8 9
4 6 5 4 3 4 4 2 2 4 8 6 6 8 8 8 9 10 10 9 8 10 12 13 12 12 14 14 12 12 11 11 11 13 15 13 10 9 9 10 11 11 11 9 9 9 10 11 12
4 5 4 4 4 4 4 4 4 6 7 4 4 7 8 8 7 7 7 8 8 10 11 13 12 11 12 11 10 11 11 11 13 13 14 13 10 7 9 9 10 11 11 10 10 10 10 10 12
4 3 5 6 7 4 5 5 3 9 6 4 6 7 7 7 6 5 5 5 7 9 10 11 12 11 12 9 8 9 11 12 13 13 14 14 12 10 8 7 8 10 11 11 11 11 10 9 9
1 4 8 7 6 5 3 6 8 10 4 6 7 7 5 4 4 4 4 5 7 7 8 10 11 10 10 9 9 9 11 11 10 11 14 14 13 12 10 7 6 9 10 10 9 9 8 6 6
3 2 5 7 3 3 8 9 10 6 8 8 7 6 5 3 3 2 2 2 5 7 7 8 9 10 9 8 8 8 9 8 8 9 10 11 11 11 9 6 5 8 7 6 4 3 3 4 5
2 3 5 7 3 4 6 9 8 3 8 9 8 7 7 5 3 2 3 3 5 7 8 8 8 9 9 7 7 7 7 6 6 6 6 6 7 8 7 5 5 6 4 3 3 3 3 4 5
6 5 5 6 4 5 7 11 10 6 8 10 9 8 8 7 5 3 4 5 6 6 8 8 8 8 8 6 5 4 4 3 4 4 4 4 4 5 5 4 4 4 2 2 2 3 3 3 4
6 5 8 8 6 6 10 13 14 10 8 9 9 10 9 8 5 4 5 6 7 7 8 7 8 7 7 5 4 4 3 2 2 2 2 2 3 3 3 2 2 2 2 3 3 2 3 3 2
7 8 8 8 4 4 8 12 12 11 10 12 14 14 12 9 7 6 5 5 5 6 7 7 8 7 6 5 4 3 3 2 1 1 2 1 1 1 2 2 2 2 1 2 2 2 2 2 1
8 7 7 7 6 5 5 9 8 7 6 7 11 13 13 14 13 9 7 6 6 6 7 7 7 7 7 6 5 5 4 3 2 2 1 2 1 1 1 2 2 1 2 3 3 3 3 4 3
8 8 7 5 2 5 2 6 9 6 5 7 10 11 13 12 11 10 9 8 7 6 6 7 7 7 7 7 6 6 4 3 2 1 1 2 2 1 1 1 1 1 1 2 3 3 3 3 4
9 5 4 3 3 4 3 5 9 5 7 10 12 14 14 13 13 12 10 9 7 6 7 7 8 7 6 7 7 7 4 3 1 1 1 2 3 3 2 1 1 1 1 2 3 3 3 3 4
5 3 4 4 3 5 7 8 8 7 10 9 12 14 14 14 12 11 9 8 7 6 6 7 8 6 6 7 7 7 6 5 3 2 1 1 2 2 3 2 1 2 2 3 4 4 5 4 5
5 5 2 4 1 8 5 6 11 11 10 11 17 18 16 15 14 13 12 10 9 9 8 7 8 7 6 7 6 6 6 5 5 3 2 1 1 1 2 2 2 3 4 5 4 4 5 5 6
7 10 7 6 6 6 3 8 9 8 6 8 12 15 15 15 14 15 14 13 11 10 9 9 9 7 7 7 6 5 5 4 3 2 2 2 2 2 3 3 4 5 6 6 5 4 5 5 6
8 7 8 4 3 5 7 8 9 4 3 4 11 14 17 17 16 15 14 13 12 11 10 10 9 7 7 7 6 5 5 4 3 2 1 1 2 2 3 3 4 5 6 6 5 4 6 6 6
9 9 5 5 5 6 7 7 6 8 6 6 12 16 16 15 14 14 15 14 12 11 9 9 9 8 7 7 6 5 4 4 3 2 1 1 2 2 3 4 4 5 5 5 5 5 6 7 7
7 6 6 6 5 6 5 7 6 8 8 10 14 16 17 18 18 16 15 13 12 10 10 9 9 8 7 7 5 5 3 3 2 1 1 2 2 3 4 5 5 6 6 6 6 7 8 8 8
9 10 9 6 7 6 4 8 7 5 7 9 12 12 14 16 15 14 13 12 12 12 11 10 9 8 7 6 6 5 3 2 1 1 2 2 3 3 4 5 6 7 7 7 7 9 9 9 10
Wind_Direction
320 356 63 55 56 48 272 255 202 180 139 191 125 110 118 134 151 174 189 148 148 155 168 170 168 166 162 157 151 145 138 132 128 123 118 113 109 105 99 94 89 84 80 76 73 72 70 68 68
1 35 59 65 90 92 272 257 177 173 172 163 108 107 108 131 192 154 141 160 153 158 167 168 169 168 165 161 156 152 146 141 136 132 126 121 116 111 105 98 93 88 83 79 77 76 74 71 69
9 63 86 84 134 190 226 227 186 187 182 142 106 97 137 167 203 188 184 154 151 159 166 169 170 170 168 164 160 157 153 149 143 140 135 130 123 116 110 103 98 93 88 84 81 78 77 74 71
55 54 61 91 222 224 211 229 205 164 152 122 113 79 84 318 223 199 146 147 151 159 165 171 171 172 170 167 164 162 159 156 151 148 144 138 130 123 115 110 105 99 95 91 86 81 77 74 72
62 79 75 3 252 251 224 220 193 158 168 186 122 116 45 330 11 128 141 151 155 160 167 172 172 173 172 170 169 167 165 163 159 156 153 148 142 135 128 123 117 110 102 96 91 87 80 73 70
55 71 100 232 254 267 261 231 162 128 111 82 116 115 246 314 114 143 151 156 158 161 168 174 175 175 175 174 173 172 171 169 166 164 163 159 154 149 145 141 135 129 119 107 96 89 85 77 66
109 104 171 221 265 278 256 208 144 128 114 152 133 122 247 275 198 159 150 152 154 162 167 174 177 177 178 177 177 177 177 176 174 174 172 170 168 168 166 163 161 158 150 140 126 104 86 66 44
136 107 218 254 256 280 303 137 147 141 157 156 119 144 200 219 187 134 123 141 152 161 168 172 175 176 178 179 181 181 181 181 180 181 179 178 180 185 185 182 185 187 189 190 197 215 251 292 310
105 84 227 243 251 296 336 35 351 31 82 50 61 161 210 148 134 122 113 127 155 168 173 172 173 175 177 179 183 184 185 186 185 186 184 184 186 193 199 194 202 207 211 218 229 243 258 270 278
102 154 227 228 208 201 317 37 329 42 34 34 34 32 85 123 147 159 165 168 174 179 182 178 176 175 175 181 185 185 186 189 188 188 187 188 190 198 207 207 213 218 221 230 243 254 263 270 268
166 195 231 258 232 189 182 260 299 145 228 215 203 180 155 158 175 190 195 188 188 182 181 182 181 178 177 180 180 183 185 188 190 191 191 192 195 202 210 215 221 223 223 229 244 259 262 259 259
209 240 235 246 219 193 196 212 265 204 221 216 191 173 170 178 192 200 204 203 191 181 186 183 181 179 181 179 180 183 184 188 191 196 197 195 195 202 206 209 213 213 216 222 235 246 255 257 259
230 265 285 273 261 225 211 225 236 245 240 217 171 159 173 184 200 213 213 205 189 185 185 183 181 180 179 178 181 184 186 190 195 200 203 202 199 204 206 208 208 212 218 224 231 239 247 252 257
223 251 286 278 268 251 230 254 227 254 237 201 173 175 180 182 190 191 197 197 191 187 182 177 178 176 172 174 176 182 187 192 197 203 206 206 205 204 203 209 211 216 222 227 231 234 237 242 248
241 315 313 283 247 236 186 272 241 244 189 189 187 179 170 170 162 175 198 196 190 180 169 167 171 168 166 168 172 178 186 190 196 204 209 208 207 206 204 208 212 220 228 233 236 241 240 244 247
16 354 293 289 237 192 153 249 263 248 175 193 195 184 169 160 144 144 152 160 160 154 152 157 159 158 160 159 162 165 173 178 190 199 205 210 211 211 207 209 219 227 228 229 232 237 249 254 257
357 253 257 293 227 178 188 242 264 224 179 196 198 190 174 156 127 88 86 113 135 142 142 140 139 146 150 143 140 141 147 153 165 172 182 196 203 207 204 211 225 232 230 235 243 246 244 262 270
233 236 255 265 267 192 221 248 261 248 210 207 200 188 177 167 164 129 95 93 106 118 124 125 125 131 129 120 111 105 103 111 127 144 167 184 198 208 207 215 228 228 221 242 248 259 259 260 270
214 236 261 262 254 219 236 251 256 247 226 216 204 188 181 174 162 125 101 98 98 104 112 118 122 128 127 123 123 120 120 105 86 103 141 174 201 214 210 219 231 220 219 244 253 261 277 279 280
226 248 264 279 282 232 258 264 259 242 221 209 197 188 178 167 156 138 119 106 108 117 116 118 122 127 129 128 127 124 122 110 105 69 73 103 171 202 201 205 216 224 231 261 264 252 271 276 254
233 228 241 260 309 313 298 294 274 264 227 210 195 183 175 170 164 156 144 132 127 131 135 130 127 124 122 121 109 91 74 58 46 28 0 355 49 198 209 215 219 234 223 254 262 250 243 269 274
240 232 223 236 269 282 277 288 282 263 249 210 191 180 178 171 162 158 155 150 150 151 138 128 126 122 121 121 125 129 133 145 181 194 310 343 11 7 320 241 229 246 243 259 265 252 240 240 267
215 214 203 220 218 277 247 234 278 262 241 226 201 189 183 174 167 163 163 158 153 149 141 134 125 121 121 120 127 126 126 141 128 81 52 10 359 4 3 6 357 314 289 276 277 278 261 237 245
166 95 33 46 86 269 227 202 271 238 223 216 198 191 184 174 167 160 155 146 144 145 142 138 132 129 128 126 129 136 141 142 130 114 85 357 343 347 350 348 334 305 291 279 275 269 270 259 255
127 113 353 320 297 249 224 204 248 250 231 206 193 189 183 175 168 164 162 162 160 161 159 153 145 142 141 135 138 146 149 150 153 160 163 175 319 311 303 319 309 299 291 289 285 279 277 269 264
181 162 183 222 236 275 257 226 252 266 269 213 185 177 174 176 175 173 173 170 169 170 167 161 157 153 151 146 148 149 149 148 160 170 173 197 228 257 276 296 297 296 298 299 295 286 280 276 270
163 196 189 180 262 272 272 277 299 281 346 148 159 167 180 182 181 179 176 174 173 173 174 170 164 159 160 158 152 151 151 151 162 171 173 211 248 262 294 302 300 301 302 298 296 285 284 283 274
163 163 139 170 209 244 270 265 252 262 238 185 177 183 186 185 185 183 182 180 178 175 171 168 164 164 164 161 161 158 162 165 167 161 199 264 284 295 308 307 303 301 300 297 293 287 281 281 277
160 168 176 183 192 190 250 266 236 246 223 199 198 193 188 188 190 189 187 182 175 168 165 167 166 160 161 162 157 151 163 165 159 171 240 270 285 298 300 299 300 299 297 294 290 286 285 281 281
186 186 172 185 228 207 211 267 281 283 233 202 201 198 195 194 193 189 182 175 172 171 170 169 167 164 166 161 154 157 161 152 165 228 260 270 282 287 288 293 295 293 292 290 286 286 287 281 282
Height
1540 1541 1543 1545 1549 1559 1559 1550 1543 1540 1538 1537 1537 1537 1540 1544 1548 1552 1549 1546 1547 1547 1548 1550 1552 1553 1555 1556 1557 1558 1558 1559 1559 1559 1559 1559 1559 1558 1558 1557 1557 1557 1556 1556 1555 1555 1555 1554 1554
1539 1541 1544 1545 1555 1565 1559 1546 1542 1537 1536 1536 1537 1538 1540 1542 1543 1544 1544 1545 1546 1547 1548 1550 1551 1553 1554 1555 1557 1557 1558 1559 1559 1559 1560 1560 1559 1559 1559 1558 1558 1557 1557 1557 1556 1556 1555 1555 1555
1539 1541 1544 1546 1556 1561 1553 1542 1538 1535 1535 1535 1536 1538 1540 1541 1542 1543 1544 1544 1545 1546 1548 1549 1551 1552 1554 1555 1556 1557 1558 1559 1559 1560 1560 1560 1560 1560 1559 1559 1559 1558 1558 1557 1557 1557 1556 1556 1556
1540 1542 1544 1550 1553 1548 1543 1539 1537 1536 1535 1535 1536 1539 1540 1542 1542 1542 1543 1543 1544 1546 1547 1549 1550 1552 1553 1555 1556 1557 1558 1559 1559 1560 1560 1561 1561 1560 1560 1560 1559 1559 1559 1558 1558 1558 1557 1557 1557
1540 1541 1547 1553 1549 1542 1537 1535 1535 1534 1534 1535 1536 1538 1539 1541 1541 1542 1543 1543 1544 1545 1546 1548 1549 1551 1552 1554 1555 1557 1558 1559 1559 1560 1560 1561 1561 1561 1560 1560 1560 1560 1559 1559 1559 1559 1558 1558 1558
1541 1542 1554 1556 1548 1539 1535 1533 1532 1533 1534 1534 1536 1537 1539 1540 1540 1541 1542 1543 1544 1545 1546 1547 1549 1550 1551 1553 1555 1556 1557 1558 1559 1560 1560 1561 1561 1561 1561 1561 1560 1560 1560 1560 1560 1559 1559 1559 1559
1541 1545 1550 1549 1546 1540 1534 1532 1531 1532 1533 1534 1535 1537 1538 1539 1540 1541 1542 1543 1544 1545 1545 1546 1547 1549 1550 1552 1553 1555 1556 1557 1558 1559 1560 1561 1561 1561 1561 1561 1561 1561 1561 1561 1560 1560 1560 1560 1559
1539 1544 1546 1546 1544 1539 1533 1532 1531 1531 1532 1534 1534 1535 1537 1538 1539 1540 1541 1542 1543 1544 1545 1545 1546 1548 1549 1551 1552 1554 1555 1557 1558 1559 1559 1560 1560 1561 1561 1561 1561 1561 1561 1561 1561 1560 1560 1560 1560
1539 1547 1550 1544 1541 1538 1533 1532 1532 1532 1532 1533 1533 1534 1535 1536 1537 1538 1539 1540 1541 1541 1543 1544 1545 1546 1548 1549 1551 1553 1554 1556 1557 1558 1558 1559 1560 1560 1560 1561 1561 1561 1561 1561 1560 1560 1560 1560 1560
1538 1547 1543 1538 1536 1535 1534 1533 1532 1532 1531 1532 1532 1533 1533 1534 1535 1536 1537 1537 1538 1539 1540 1542 1543 1545 1546 1548 1549 1551 1553 1554 1555 1556 1557 1558 1558 1559 1559 1560 1560 1560 1560 1560 1560 1560 1559 1559 1559
1536 1539 1536 1534 1533 1533 1533 1532 1532 1531 1531 1530 1531 1531 1532 1533 1534 1534 1534 1535 1535 1536 1538 1539 1541 1543 1544 1546 1547 1549 1551 1552 1554 1555 1556 1556 1557 1557 1558 1558 1559 1559 1559 1559 1559 1558 1558 1558 1557
1534 1533 1532 1532 1532 1531 1530 1530 1529 1528 1528 1528 1528 1529 1529 1530 1531 1531 1532 1532 1533 1534 1535 1537 1539 1540 1542 1544 1546 1547 1549 1550 1552 1553 1554 1555 1555 1556 1556 1557 1557 1557 1557 1557 1557 1557 1556 1556 1555
1532 1531 1530 1529 1529 1528 1528 1527 1527 1524 1524 1525 1526 1526 1527 1527 1528 1528 1529 1530 1530 1531 1532 1534 1536 1538 1540 1542 1544 1546 1547 1549 1550 1552 1552 1553 1554 1554 1555 1555 1555 1555 1555 1555 1555 1554 1554 1553 1552
1530 1529 1528 1527 1526 1525 1525 1524 1525 1520 1521 1522 1522 1523 1524 1524 1524 1525 1525 1526 1527 1528 1529 1531 1533 1535 1538 1540 1542 1544 1546 1547 1548 1550 1550 1551 1552 1552 1553 1553 1553 1553 1553 1553 1552 1552 1551 1550 1549
1529 1529 1528 1524 1522 1522 1524 1525 1521 1517 1519 1519 1519 1520 1521 1521 1522 1522 1522 1522 1523 1524 1526 1528 1531 1533 1536 1538 1540 1542 1544 1546 1547 1548 1549 1549 1550 1550 1550 1551 1551 1551 1551 1550 1549 1549 1548 1547 1546
1529 1532 1535 1524 1521 1520 1526 1528 1516 1515 1515 1516 1517 1517 1518 1518 1519 1519 1519 1520 1520 1522 1524 1527 1529 1531 1533 1536 1538 1540 1542 1543 1545 1546 1547 1547 1548 1548 1548 1548 1548 1548 1548 1547 1546 1546 1545 1544 1543
1535 1539 1535 1527 1520 1520 1523 1523 1513 1512 1513 1513 1514 1514 1515 1516 1516 1517 1517 1517 1518 1520 1522 1525 1527 1529 1532 1534 1537 1539 1540 1542 1543 1544 1544 1545 1545 1545 1545 1545 1545 1545 1544 1544 1543 1542 1541 1540 1538
1538 1537 1533 1529 1520 1520 1521 1519 1512 1511 1511 1510 1510 1511 1512 1513 1514 1515 1515 1516 1517 1518 1521 1523 1526 1528 1530 1533 1535 1537 1538 1540 1540 1541 1542 1542 1542 1542 1542 1542 1542 1541 1541 1540 1539 1538 1537 1536 1534
1529 1531 1531 1526 1518 1519 1519 1515 1509 1506 1507 1507 1506 1507 1509 1510 1512 1513 1513 1514 1516 1517 1519 1522 1524 1526 1529 1531 1533 1535 1536 1538 1538 1539 1539 1539 1539 1539 1539 1538 1538 1538 1537 1536 1535 1534 1533 1531 1530
1527 1530 1528 1522 1516 1517 1516 1512 1504 1501 1500 1499 1499 1501 1504 1507 1509 1510 1512 1513 1515 1517 1519 1521 1523 1525 1527 1530 1532 1534 1535 1536 1536 1537 1537 1537 1536 1536 1536 1535 1534 1534 1533 1532 1531 1530 1528 1527 1526
1525 1526 1524 1522 1517 1514 1516 1513 1503 1496 1494 1494 1495 1496 1499 1502 1504 1507 1510 1512 1514 1516 1518 1520 1522 1524 1526 1529 1531 1532 1533 1534 1535 1535 1535 1534 1534 1533 1533 1532 1531 1531 1530 1529 1528 1527 1525 1523 1523
1524 1517 1517 1518 1523 1526 1520 1526 1505 1496 1493 1492 1492 1493 1496 1499 1502 1505 1508 1510 1513 1515 1518 1520 1522 1524 1526 1528 1529 1531 1532 1532 1533 1533 1533 1532 1532 1531 1530 1529 1529 1528 1527 1525 1524 1523 1522 1520 1518
1515 1511 1514 1515 1520 1526 1522 1525 1508 1496 1494 1489 1488 1489 1492 1496 1499 1503 1506 1509 1512 1515 1517 1519 1521 1523 1525 1527 1528 1530 1530 1531 1531 1531 1531 1530 1530 1529 1528 1527 1526 1525 1524 1522 1521 1520 1518 1516 1514
1509 1513 1517 1523 1526 1532 1520 1525 1512 1495 1485 1482 1484 1486 1489 1493 1497 1501 1505 1508 1511 1514 1517 1519 1521 1522 1524 1526 1527 1528 1529 1529 1529 1529 1528 1528 1527 1526 1525 1524 1523 1522 1520 1519 1517 1515 1514 1512 1510
1510 1521 1533 1532 1537 1530 1513 1516 1503 1479 1475 1474 1476 1480 1485 1490 1494 1498 1502 1505 1509 1512 1515 1518 1520 1521 1523 1525 1526 1527 1527 1527 1527 1527 1526 1525 1525 1524 1523 1521 1520 1518 1517 1515 1513 1511 1509 1507 1504
1509 1515 1530 1535 1533 1523 1509 1510 1489 1473 1470 1469 1472 1477 1483 1488 1492 1495 1499 1503 1507 1510 1513 1516 1518 1520 1522 1523 1524 1525 1525 1525 1525 1524 1524 1523 1522 1521 1519 1518 1516 1514 1512 1510 1508 1506 1503 1501 1498
1508 1512 1510 1521 1522 1523 1512 1498 1482 1470 1469 1469 1472 1477 1480 1484 1489 1493 1497 1501 1505 1508 1511 1514 1517 1518 1520 1521 1522 1523 1523 1523 1522 1522 1521 1520 1519 1517 1516 1514 1512 1510 1508 1505 1502 1500 1497 1494 1492
1496 1502 1513 1520 1527 1526 1512 1500 1489 1473 1471 1471 1473 1474 1477 1482 1486 1490 1494 1498 1502 1506 1509 1512 1515 1516 1518 1519 1520 1520 1521 1520 1520 1519 1518 1517 1515 1514 1512 1510 1508 1505 1502 1500 1497 1493 1491 1487 1485
1497 1500 1504 1511 1515 1520 1516 1499 1474 1470 1467 1468 1469 1471 1474 1478 1482 1486 1490 1495 1499 1503 1506 1509 1511 1513 1515 1516 1517 1518 1518 1517 1517 1516 1514 1513 1512 1510 1507 1505 1502 1500 1497 1494 1490 1487 1484 1480 1477
1487 1490 1498 1509 1509 1508 1510 1496 1467 1466 1464 1464 1466 1469 1472 1475 1479 1483 1487 1491 1495 1499 1502 1505 1508 1510 1512 1513 1514 1514 1514 1514 1513 1512 1511 1509 1507 1505 1503 1500 1497 1494 1491 1488 1484 1480 1477 1474 1470